Weather in Asti

Italy     44°53′55″N   8°12′39″E
temp.,
°C
wind,
m/s
gust,
m/s
humid.,
%
clouds,
%
prec.,
mm/h
press.,
hPa
HPBL,
m
13 may, thu
thu1323:00+11ssw2390100 0.5 100875
02:00+11ssw2296100 0.7 100752
05:00+10sw119297 0.0 100610
08:00+12wnw12851 0.0 1006174
11:00+16ssw22610 0.0 1005692
14:00+20sse22510 0.0 10031424
17:00+20sse334949 0.0 10021816
20:00+13w139295 5.4 100495
14 may, fri
fri1423:00+10n00905 2.4 100610
02:00+9sw1192100 2.4 100712
05:00+8wsw119384 0.0 100710
08:00+11ene128899 0.0 1008157
11:00+14n117297 0.1 1009676
14:00+14sw2277100 0.7 1008340
17:00+17se22637 0.6 1007845
20:00+13s478841 3.1 1008233
15 may, sat
sat1523:00+10s22925 0.0 101014
02:00+8sw11906 0.0 101010
05:00+8wsw1191100 0.0 101010
08:00+11wsw008781 0.0 1011125
11:00+15se2272100 0.0 1010757
14:00+17sse2363100 0.4 10091181
17:00+18s446085 0.3 10081280
20:00+14s3776100 0.4 1008239
16 may, sun
sun1623:00+12s128220 0.0 100919
02:00+10w11890 0.0 100910
05:00+9wnw1191100 0.0 100910
08:00+12wsw008346 0.0 1010136
11:00+17e11685 0.0 1010757
14:00+20se125792 0.0 10091311
17:00+20s3363100 0.1 1007919
20:00+17sse247931 0.3 100877
17 may, mon
mon1723:00+12sse249090 0.0 100896
02:00+12s119098 0.1 100830
05:00+11wsw11921 0.1 100718
08:00+13w12879 0.1 1007170
11:00+18w117096 0.0 1007793
14:00+21ne12461 0.0 10061358
17:00+22ne12390 0.0 10051351
20:00+18sse226359 0.0 100615